Location: Ku?niki
(51.4449°N, 17.8974°E)
Time: 22:30:52
(UTC+00:00)

EO-79 - Pass Details

Date: 09 July 2022
Orbit: 588 x 603 km, 98.0° (Epoch: 17 August)

Event Time Altitude Azimuth Distance (km) Brightness Sun altitude
Rises 00:38:45 0° 15° (NNE) 2,865 ? -12.7°
Reaches altitude 10° 00:40:56 10° 16° (NNE) 1,959 ? -12.5°
Maximum altitude 00:45:12 80° 104° (ESE) 621 ? -12.2°
Enters shadow 00:48:29 17° 190° (S) 1,559 ? -12.0°
